WXM80 ListenWXM80 Stop

You find our weather info also at:

UK Metoffice

WeatherCloud

Weather Underground

Northeastern Weather Network

AWEKAS

Citizen Weather Observer Program (CWOP)

HAMweather, WeatherForYou, PWS Weather


Weather Underground History page Text

Daily Summary for April 20, 2017 Units:  Both    English   Metric
« Previous Day
Next Day »
Daily Weekly Monthly Yearly Custom
  High: Low: Average:
Temperature: 63.2 °F /  17.3 °C 47.3 °F /  8.5 °C 53.1 °F /  11.7 °C
Dew Point: 56.1 °F /  13.4 °C 45.9 °F /  7.7 °C 49.8 °F /  9.9 °C
Humidity: 98 % 72 % 89 %
Wind Speed: 6.3 mph /  10.1 km/h - 1.3 mph /  2.1 km/h
Wind Gust: 12.0 mph /  19.3 km/h - -
Wind:- - East
Pressure: 30.21 in /  1022.9 hPa 29.99 in /  1015.5 hPa -
Precipitation: 0.00 in /  0 mm    
Historical Graphs
 
 
Tabular Data for April 20, 2017
Time Temperature Dew Point Pressure Wind Wind Speed Wind Gust Humidity Rainfall Rate (Hourly)
00:04 47.6 °F /  8.7 °C 46.2 °F /  7.9 °C 30.21 in /  1022.9 hPa Calm     95 % 0.00 in /  0 mm
00:09 47.6 °F /  8.7 °C 46.2 °F /  7.9 °C 30.20 in /  1022.6 hPa Calm     95 % 0.00 in /  0 mm
00:15 47.6 °F /  8.7 °C 46.2 °F /  7.9 °C 30.20 in /  1022.6 hPa Calm     95 % 0.00 in /  0 mm
00:20 47.7 °F /  8.7 °C 46.3 °F /  7.9 °C 30.20 in /  1022.6 hPa Calm     95 % 0.00 in /  0 mm
00:25 47.7 °F /  8.7 °C 46.3 °F /  7.9 °C 30.19 in /  1022.2 hPa Calm     95 % 0.00 in /  0 mm
00:30 47.8 °F /  8.8 °C 46.4 °F /  8 °C 30.19 in /  1022.2 hPa Calm     95 % 0.00 in /  0 mm
00:35 47.8 °F /  8.8 °C 46.4 °F /  8 °C 30.19 in /  1022.2 hPa Calm     95 % 0.00 in /  0 mm
00:40 47.8 °F /  8.8 °C 46.4 °F /  8 °C 30.20 in /  1022.6 hPa Calm     95 % 0.00 in /  0 mm
00:45 47.8 °F /  8.8 °C 46.4 °F /  8 °C 30.20 in /  1022.6 hPa Calm   1.2 mph /  1.9 km/h 95 % 0.00 in /  0 mm
00:50 47.8 °F /  8.8 °C 46.4 °F /  8 °C 30.19 in /  1022.2 hPa SSE 0.1 mph /  0.2 km/h   95 % 0.00 in /  0 mm
00:55 47.9 °F /  8.8 °C 46.5 °F /  8.1 °C 30.19 in /  1022.2 hPa SSE 0.7 mph /  1.1 km/h 1.2 mph /  1.9 km/h 95 % 0.00 in /  0 mm
01:00 47.8 °F /  8.8 °C 46.4 °F /  8 °C 30.19 in /  1022.2 hPa Calm     95 % 0.00 in /  0 mm
01:05 47.8 °F /  8.8 °C 46.4 °F /  8 °C 30.19 in /  1022.2 hPa Calm     95 % 0.01 in /  0.25 mm
01:10 47.8 °F /  8.8 °C 46.4 °F /  8 °C 30.19 in /  1022.2 hPa Calm     95 % 0.03 in /  0.76 mm
01:15 47.7 °F /  8.7 °C 46.3 °F /  7.9 °C 30.18 in /  1021.9 hPa Calm   2.3 mph /  3.7 km/h 95 % 0.07 in /  1.78 mm
01:20 47.7 °F /  8.7 °C 46.3 °F /  7.9 °C 30.18 in /  1021.9 hPa Calm     95 % 0.07 in /  1.78 mm
01:25 47.7 °F /  8.7 °C 46.3 °F /  7.9 °C 30.18 in /  1021.9 hPa Calm     95 % 0.08 in /  2.03 mm
01:30 47.6 °F /  8.7 °C 46.2 °F /  7.9 °C 30.17 in /  1021.6 hPa Calm     95 % 0.08 in /  2.03 mm
01:35 47.6 °F /  8.7 °C 46.2 °F /  7.9 °C 30.18 in /  1021.9 hPa SSE 0.2 mph /  0.3 km/h 1.0 mph /  1.6 km/h 95 % 0.08 in /  2.03 mm
01:40 47.5 °F /  8.6 °C 46.1 °F /  7.8 °C 30.17 in /  1021.6 hPa SSE 0.2 mph /  0.3 km/h   95 % 0.08 in /  2.03 mm
01:45 47.5 °F /  8.6 °C 46.1 °F /  7.8 °C 30.17 in /  1021.6 hPa SSE 0.7 mph /  1.1 km/h 2.3 mph /  3.7 km/h 95 % 0.08 in /  2.03 mm
01:50 47.5 °F /  8.6 °C 46.1 °F /  7.8 °C 30.17 in /  1021.6 hPa Calm     95 % 0.08 in /  2.03 mm
01:55 47.4 °F /  8.6 °C 46.0 °F /  7.8 °C 30.17 in /  1021.6 hPa SSE 0.1 mph /  0.2 km/h 1.2 mph /  1.9 km/h 95 % 0.08 in /  2.03 mm
02:00 47.4 °F /  8.6 °C 46.0 °F /  7.8 °C 30.17 in /  1021.6 hPa Calm     95 % 0.08 in /  2.03 mm
02:05 47.4 °F /  8.6 °C 46.0 °F /  7.8 °C 30.17 in /  1021.6 hPa SSE 0.1 mph /  0.2 km/h 1.2 mph /  1.9 km/h 95 % 0.06 in /  1.52 mm
02:10 47.3 °F /  8.5 °C 45.9 °F /  7.7 °C 30.17 in /  1021.6 hPa ENE 0.7 mph /  1.1 km/h 2.0 mph /  3.2 km/h 95 % 0.06 in /  1.52 mm
02:15 47.4 °F /  8.6 °C 46.0 °F /  7.8 °C 30.17 in /  1021.6 hPa Calm     95 % 0.03 in /  0.76 mm
02:20 47.3 °F /  8.5 °C 45.9 °F /  7.7 °C 30.16 in /  1021.2 hPa Calm   2.3 mph /  3.7 km/h 95 % 0.05 in /  1.27 mm
02:25 47.3 °F /  8.5 °C 45.9 °F /  7.7 °C 30.15 in /  1020.9 hPa Calm     95 % 0.05 in /  1.27 mm
02:30 47.3 °F /  8.5 °C 45.9 °F /  7.7 °C 30.14 in /  1020.5 hPa Calm   1.2 mph /  1.9 km/h 95 % 0.05 in /  1.27 mm
02:35 47.3 °F /  8.5 °C 45.9 °F /  7.7 °C 30.14 in /  1020.5 hPa Calm     95 % 0.05 in /  1.27 mm
02:40 47.3 °F /  8.5 °C 45.9 °F /  7.7 °C 30.14 in /  1020.5 hPa Calm     95 % 0.05 in /  1.27 mm
02:45 47.3 °F /  8.5 °C 45.9 °F /  7.7 °C 30.14 in /  1020.5 hPa Calm     95 % 0.05 in /  1.27 mm
02:50 47.3 °F /  8.5 °C 46.2 °F /  7.9 °C 30.14 in /  1020.5 hPa Calm     96 % 0.05 in /  1.27 mm
02:55 47.3 °F /  8.5 °C 46.2 °F /  7.9 °C 30.13 in /  1020.2 hPa Calm     96 % 0.05 in /  1.27 mm
03:00 47.4 °F /  8.6 °C 46.3 °F /  7.9 °C 30.13 in /  1020.2 hPa ENE 1.1 mph /  1.8 km/h 2.3 mph /  3.7 km/h 96 % 0.05 in /  1.27 mm
03:05 47.4 °F /  8.6 °C 46.3 °F /  7.9 °C 30.13 in /  1020.2 hPa Calm     96 % 0.05 in /  1.27 mm
03:10 47.4 °F /  8.6 °C 46.3 °F /  7.9 °C 30.14 in /  1020.5 hPa Calm     96 % 0.04 in /  1.02 mm
03:15 47.4 °F /  8.6 °C 46.3 °F /  7.9 °C 30.13 in /  1020.2 hPa ENE 0.1 mph /  0.2 km/h 1.2 mph /  1.9 km/h 96 % 0.03 in /  0.76 mm
03:20 47.4 °F /  8.6 °C 46.3 °F /  7.9 °C 30.13 in /  1020.2 hPa Calm     96 % 0.01 in /  0.25 mm
03:25 47.4 °F /  8.6 °C 46.3 °F /  7.9 °C 30.13 in /  1020.2 hPa Calm   1.2 mph /  1.9 km/h 96 % 0.00 in /  0 mm
03:31 47.5 °F /  8.6 °C 46.4 °F /  8 °C 30.13 in /  1020.2 hPa Calm     96 % 0.00 in /  0 mm
03:36 47.5 °F /  8.6 °C 46.4 °F /  8 °C 30.13 in /  1020.2 hPa ENE 0.4 mph /  0.6 km/h 1.2 mph /  1.9 km/h 96 % 0.00 in /  0 mm
03:41 47.5 °F /  8.6 °C 46.4 °F /  8 °C 30.12 in /  1019.9 hPa ENE 0.3 mph /  0.5 km/h 2.3 mph /  3.7 km/h 96 % 0.00 in /  0 mm
03:46 47.5 °F /  8.6 °C 46.4 °F /  8 °C 30.12 in /  1019.9 hPa ENE 0.5 mph /  0.8 km/h 1.2 mph /  1.9 km/h 96 % 0.00 in /  0 mm
03:51 47.6 °F /  8.7 °C 46.5 °F /  8.1 °C 30.12 in /  1019.9 hPa ENE 0.5 mph /  0.8 km/h 1.2 mph /  1.9 km/h 96 % 0.00 in /  0 mm
03:56 47.6 °F /  8.7 °C 46.5 °F /  8.1 °C 30.12 in /  1019.9 hPa ENE 0.4 mph /  0.6 km/h 2.3 mph /  3.7 km/h 96 % 0.00 in /  0 mm
04:01 47.5 °F /  8.6 °C 46.4 °F /  8 °C 30.12 in /  1019.9 hPa ENE 0.8 mph /  1.3 km/h 2.0 mph /  3.2 km/h 96 % 0.00 in /  0 mm
04:06 47.5 °F /  8.6 °C 46.4 °F /  8 °C 30.11 in /  1019.5 hPa ENE 0.2 mph /  0.3 km/h 1.2 mph /  1.9 km/h 96 % 0.00 in /  0 mm
04:11 47.5 °F /  8.6 °C 46.4 °F /  8 °C 30.11 in /  1019.5 hPa ENE 0.3 mph /  0.5 km/h 1.2 mph /  1.9 km/h 96 % 0.00 in /  0 mm
04:16 47.5 °F /  8.6 °C 46.4 °F /  8 °C 30.11 in /  1019.5 hPa Calm     96 % 0.00 in /  0 mm
04:21 47.5 °F /  8.6 °C 46.4 °F /  8 °C 30.11 in /  1019.5 hPa Calm   1.2 mph /  1.9 km/h 96 % 0.00 in /  0 mm
04:26 47.6 °F /  8.7 °C 46.5 °F /  8.1 °C 30.10 in /  1019.2 hPa ENE 1.0 mph /  1.6 km/h 2.3 mph /  3.7 km/h 96 % 0.00 in /  0 mm
04:31 47.6 °F /  8.7 °C 46.5 °F /  8.1 °C 30.10 in /  1019.2 hPa ENE 0.2 mph /  0.3 km/h 1.2 mph /  1.9 km/h 96 % 0.00 in /  0 mm
04:36 47.5 °F /  8.6 °C 46.4 °F /  8 °C 30.10 in /  1019.2 hPa ENE 0.7 mph /  1.1 km/h 2.3 mph /  3.7 km/h 96 % 0.00 in /  0 mm
04:41 47.5 °F /  8.6 °C 46.4 °F /  8 °C 30.10 in /  1019.2 hPa Calm     96 % 0.01 in /  0.25 mm
04:46 47.5 °F /  8.6 °C 46.4 °F /  8 °C 30.10 in /  1019.2 hPa ENE 0.3 mph /  0.5 km/h 1.2 mph /  1.9 km/h 96 % 0.01 in /  0.25 mm
04:51 47.6 °F /  8.7 °C 46.5 °F /  8.1 °C 30.10 in /  1019.2 hPa Calm   1.2 mph /  1.9 km/h 96 % 0.01 in /  0.25 mm
04:56 47.5 °F /  8.6 °C 46.4 °F /  8 °C 30.10 in /  1019.2 hPa Calm     96 % 0.01 in /  0.25 mm
05:01 47.6 °F /  8.7 °C 46.5 °F /  8.1 °C 30.09 in /  1018.8 hPa Calm     96 % 0.01 in /  0.25 mm
05:06 47.6 °F /  8.7 °C 46.5 °F /  8.1 °C 30.10 in /  1019.2 hPa ENE 0.2 mph /  0.3 km/h 2.3 mph /  3.7 km/h 96 % 0.01 in /  0.25 mm
05:11 47.6 °F /  8.7 °C 46.5 °F /  8.1 °C 30.09 in /  1018.8 hPa Calm     96 % 0.01 in /  0.25 mm
05:16 47.6 °F /  8.7 °C 46.5 °F /  8.1 °C 30.09 in /  1018.8 hPa Calm     96 % 0.01 in /  0.25 mm
05:21 47.6 °F /  8.7 °C 46.5 °F /  8.1 °C 30.09 in /  1018.8 hPa Calm   1.2 mph /  1.9 km/h 96 % 0.01 in /  0.25 mm
05:26 47.6 °F /  8.7 °C 46.5 °F /  8.1 °C 30.09 in /  1018.8 hPa Calm   1.2 mph /  1.9 km/h 96 % 0.02 in /  0.51 mm
05:31 47.7 °F /  8.7 °C 46.9 °F /  8.3 °C 30.09 in /  1018.8 hPa Calm     97 % 0.02 in /  0.51 mm
05:36 47.6 °F /  8.7 °C 46.8 °F /  8.2 °C 30.09 in /  1018.8 hPa Calm     97 % 0.02 in /  0.51 mm
05:41 47.7 °F /  8.7 °C 46.9 °F /  8.3 °C 30.08 in /  1018.5 hPa Calm     97 % 0.01 in /  0.25 mm
05:46 47.6 °F /  8.7 °C 46.8 °F /  8.2 °C 30.08 in /  1018.5 hPa Calm     97 % 0.01 in /  0.25 mm
05:51 47.7 °F /  8.7 °C 46.9 °F /  8.3 °C 30.08 in /  1018.5 hPa Calm     97 % 0.01 in /  0.25 mm
05:56 47.7 °F /  8.7 °C 46.9 °F /  8.3 °C 30.08 in /  1018.5 hPa Calm     97 % 0.01 in /  0.25 mm
06:01 47.7 °F /  8.7 °C 46.9 °F /  8.3 °C 30.08 in /  1018.5 hPa Calm     97 % 0.01 in /  0.25 mm
06:06 47.7 °F /  8.7 °C 46.9 °F /  8.3 °C 30.08 in /  1018.5 hPa Calm     97 % 0.01 in /  0.25 mm
06:10 47.8 °F /  8.8 °C 47.0 °F /  8.3 °C 30.07 in /  1018.2 hPa ENE 0.1 mph /  0.2 km/h 1.0 mph /  1.6 km/h 97 % 0.01 in /  0.25 mm
06:15 47.8 °F /  8.8 °C 47.0 °F /  8.3 °C 30.07 in /  1018.2 hPa Calm     97 % 0.01 in /  0.25 mm
06:20 47.8 °F /  8.8 °C 47.0 °F /  8.3 °C 30.08 in /  1018.5 hPa Calm     97 % 0.01 in /  0.25 mm
06:25 47.8 °F /  8.8 °C 47.0 °F /  8.3 °C 30.08 in /  1018.5 hPa Calm     97 % 0.00 in /  0 mm
06:30 47.9 °F /  8.8 °C 47.1 °F /  8.4 °C 30.08 in /  1018.5 hPa Calm   1.0 mph /  1.6 km/h 97 % 0.00 in /  0 mm
06:35 47.9 °F /  8.8 °C 47.1 °F /  8.4 °C 30.09 in /  1018.8 hPa ENE 0.2 mph /  0.3 km/h 1.0 mph /  1.6 km/h 97 % 0.00 in /  0 mm
06:40 47.9 °F /  8.8 °C 47.1 °F /  8.4 °C 30.09 in /  1018.8 hPa Calm     97 % 0.00 in /  0 mm
06:45 47.9 °F /  8.8 °C 47.1 °F /  8.4 °C 30.09 in /  1018.8 hPa ENE 0.4 mph /  0.6 km/h 2.0 mph /  3.2 km/h 97 % 0.00 in /  0 mm
06:50 47.9 °F /  8.8 °C 47.1 °F /  8.4 °C 30.09 in /  1018.8 hPa Calm     97 % 0.00 in /  0 mm
06:55 47.9 °F /  8.8 °C 47.1 °F /  8.4 °C 30.09 in /  1018.8 hPa Calm     97 % 0.00 in /  0 mm
07:00 47.9 °F /  8.8 °C 47.1 °F /  8.4 °C 30.09 in /  1018.8 hPa ENE 0.9 mph /  1.4 km/h 2.3 mph /  3.7 km/h 97 % 0.00 in /  0 mm
07:05 48.0 °F /  8.9 °C 47.2 °F /  8.4 °C 30.09 in /  1018.8 hPa NE 0.5 mph /  0.8 km/h 3.5 mph /  5.6 km/h 97 % 0.00 in /  0 mm
07:10 48.0 °F /  8.9 °C 47.2 °F /  8.4 °C 30.10 in /  1019.2 hPa NE 1.7 mph /  2.7 km/h 3.5 mph /  5.6 km/h 97 % 0.00 in /  0 mm
07:15 48.0 °F /  8.9 °C 47.2 °F /  8.4 °C 30.10 in /  1019.2 hPa NE 1.8 mph /  2.9 km/h 3.5 mph /  5.6 km/h 97 % 0.00 in /  0 mm
07:20 48.1 °F /  8.9 °C 47.3 °F /  8.5 °C 30.10 in /  1019.2 hPa NE 1.7 mph /  2.7 km/h 3.5 mph /  5.6 km/h 97 % 0.00 in /  0 mm
07:25 48.1 °F /  8.9 °C 47.3 °F /  8.5 °C 30.11 in /  1019.5 hPa Calm     97 % 0.00 in /  0 mm
07:31 48.1 °F /  8.9 °C 47.3 °F /  8.5 °C 30.11 in /  1019.5 hPa Calm     97 % 0.02 in /  0.51 mm
07:36 48.1 °F /  8.9 °C 47.3 °F /  8.5 °C 30.11 in /  1019.5 hPa Calm     97 % 0.03 in /  0.76 mm
07:41 48.1 °F /  8.9 °C 47.3 °F /  8.5 °C 30.11 in /  1019.5 hPa Calm     97 % 0.05 in /  1.27 mm
07:46 48.1 °F /  8.9 °C 47.3 °F /  8.5 °C 30.12 in /  1019.9 hPa Calm     97 % 0.06 in /  1.52 mm
07:51 48.1 °F /  8.9 °C 47.3 °F /  8.5 °C 30.11 in /  1019.5 hPa Calm     97 % 0.07 in /  1.78 mm
07:56 48.2 °F /  9 °C 47.4 °F /  8.6 °C 30.11 in /  1019.5 hPa Calm     97 % 0.08 in /  2.03 mm
08:01 48.3 °F /  9.1 °C 47.5 °F /  8.6 °C 30.12 in /  1019.9 hPa Calm     97 % 0.09 in /  2.29 mm
08:06 48.2 °F /  9 °C 47.4 °F /  8.6 °C 30.11 in /  1019.5 hPa Calm     97 % 0.10 in /  2.54 mm
08:11 48.3 °F /  9.1 °C 47.5 °F /  8.6 °C 30.11 in /  1019.5 hPa Calm     97 % 0.10 in /  2.54 mm
08:16 48.3 °F /  9.1 °C 47.5 °F /  8.6 °C 30.10 in /  1019.2 hPa NE 0.1 mph /  0.2 km/h 1.2 mph /  1.9 km/h 97 % 0.10 in /  2.54 mm
08:21 48.3 °F /  9.1 °C 47.5 °F /  8.6 °C 30.11 in /  1019.5 hPa Calm     97 % 0.11 in /  2.79 mm
08:26 48.4 °F /  9.1 °C 47.6 °F /  8.7 °C 30.11 in /  1019.5 hPa Calm     97 % 0.10 in /  2.54 mm
08:31 48.4 °F /  9.1 °C 47.6 °F /  8.7 °C 30.10 in /  1019.2 hPa Calm     97 % 0.09 in /  2.29 mm
08:36 48.5 °F /  9.2 °C 47.7 °F /  8.7 °C 30.10 in /  1019.2 hPa Calm     97 % 0.08 in /  2.03 mm
08:41 48.5 °F /  9.2 °C 47.7 °F /  8.7 °C 30.10 in /  1019.2 hPa Calm     97 % 0.07 in /  1.78 mm
08:46 48.6 °F /  9.2 °C 47.8 °F /  8.8 °C 30.10 in /  1019.2 hPa NE 0.3 mph /  0.5 km/h 2.0 mph /  3.2 km/h 97 % 0.06 in /  1.52 mm
08:51 48.6 °F /  9.2 °C 47.8 °F /  8.8 °C 30.10 in /  1019.2 hPa NE 1.0 mph /  1.6 km/h 2.3 mph /  3.7 km/h 97 % 0.05 in /  1.27 mm
08:56 48.7 °F /  9.3 °C 47.9 °F /  8.8 °C 30.10 in /  1019.2 hPa Calm   1.2 mph /  1.9 km/h 97 % 0.04 in /  1.02 mm
09:01 48.7 °F /  9.3 °C 47.9 °F /  8.8 °C 30.10 in /  1019.2 hPa Calm   1.2 mph /  1.9 km/h 97 % 0.04 in /  1.02 mm
09:06 48.8 °F /  9.3 °C 48.0 °F /  8.9 °C 30.10 in /  1019.2 hPa Calm   1.2 mph /  1.9 km/h 97 % 0.03 in /  0.76 mm
09:11 48.8 °F /  9.3 °C 48.0 °F /  8.9 °C 30.10 in /  1019.2 hPa Calm   2.3 mph /  3.7 km/h 97 % 0.03 in /  0.76 mm
09:16 48.9 °F /  9.4 °C 48.1 °F /  8.9 °C 30.10 in /  1019.2 hPa NE 1.1 mph /  1.8 km/h 3.5 mph /  5.6 km/h 97 % 0.03 in /  0.76 mm
09:21 48.8 °F /  9.3 °C 48.0 °F /  8.9 °C 30.10 in /  1019.2 hPa Calm   1.2 mph /  1.9 km/h 97 % 0.02 in /  0.51 mm
09:26 48.9 °F /  9.4 °C 48.1 °F /  8.9 °C 30.10 in /  1019.2 hPa NE 0.2 mph /  0.3 km/h 1.2 mph /  1.9 km/h 97 % 0.02 in /  0.51 mm
09:31 48.9 °F /  9.4 °C 48.1 °F /  8.9 °C 30.10 in /  1019.2 hPa Calm   1.2 mph /  1.9 km/h 97 % 0.02 in /  0.51 mm
09:36 48.9 °F /  9.4 °C 48.1 °F /  8.9 °C 30.11 in /  1019.5 hPa NNE 0.2 mph /  0.3 km/h 3.5 mph /  5.6 km/h 97 % 0.02 in /  0.51 mm
09:41 49.0 °F /  9.4 °C 48.2 °F /  9 °C 30.11 in /  1019.5 hPa NNE 2.0 mph /  3.2 km/h 3.5 mph /  5.6 km/h 97 % 0.01 in /  0.25 mm
09:46 49.0 °F /  9.4 °C 48.2 °F /  9 °C 30.11 in /  1019.5 hPa NNE 1.7 mph /  2.7 km/h 3.5 mph /  5.6 km/h 97 % 0.01 in /  0.25 mm
09:52 48.9 °F /  9.4 °C 48.1 °F /  8.9 °C 30.11 in /  1019.5 hPa NNE 0.8 mph /  1.3 km/h 3.5 mph /  5.6 km/h 97 % 0.01 in /  0.25 mm
09:57 48.9 °F /  9.4 °C 48.1 °F /  8.9 °C 30.10 in /  1019.2 hPa NNE 0.2 mph /  0.3 km/h 1.0 mph /  1.6 km/h 97 % 0.01 in /  0.25 mm
10:02 48.9 °F /  9.4 °C 48.1 °F /  8.9 °C 30.10 in /  1019.2 hPa NE 2.8 mph /  4.5 km/h 3.5 mph /  5.6 km/h 97 % 0.00 in /  0 mm
10:07 48.8 °F /  9.3 °C 48.0 °F /  8.9 °C 30.10 in /  1019.2 hPa ENE 2.9 mph /  4.7 km/h 3.5 mph /  5.6 km/h 97 % 0.00 in /  0 mm
10:12 48.8 °F /  9.3 °C 48.0 °F /  8.9 °C 30.10 in /  1019.2 hPa ENE 2.9 mph /  4.7 km/h 4.6 mph /  7.4 km/h 97 % 0.00 in /  0 mm
10:17 48.9 °F /  9.4 °C 48.1 °F /  8.9 °C 30.11 in /  1019.5 hPa ENE 1.8 mph /  2.9 km/h 3.5 mph /  5.6 km/h 97 % 0.00 in /  0 mm
10:22 49.1 °F /  9.5 °C 48.3 °F /  9.1 °C 30.11 in /  1019.5 hPa NE 0.1 mph /  0.2 km/h   97 % 0.00 in /  0 mm
10:27 49.3 °F /  9.6 °C 48.5 °F /  9.2 °C 30.10 in /  1019.2 hPa NE 0.5 mph /  0.8 km/h 2.3 mph /  3.7 km/h 97 % 0.00 in /  0 mm
10:32 49.6 °F /  9.8 °C 48.8 °F /  9.3 °C 30.10 in /  1019.2 hPa North 0.8 mph /  1.3 km/h 3.5 mph /  5.6 km/h 97 % 0.00 in /  0 mm
10:37 49.7 °F /  9.8 °C 48.9 °F /  9.4 °C 30.10 in /  1019.2 hPa NE 0.6 mph /  1 km/h 2.3 mph /  3.7 km/h 97 % 0.00 in /  0 mm
10:42 50.3 °F /  10.2 °C 49.5 °F /  9.7 °C 30.09 in /  1018.8 hPa NNE 2.7 mph /  4.3 km/h 3.5 mph /  5.6 km/h 97 % 0.00 in /  0 mm
10:47 50.9 °F /  10.5 °C 50.4 °F /  10.2 °C 30.10 in /  1019.2 hPa NE 1.8 mph /  2.9 km/h 3.5 mph /  5.6 km/h 98 % 0.00 in /  0 mm
10:52 50.8 °F /  10.4 °C 50.0 °F /  10 °C 30.11 in /  1019.5 hPa NE 2.2 mph /  3.5 km/h 3.5 mph /  5.6 km/h 97 % 0.00 in /  0 mm
10:57 50.9 °F /  10.5 °C 50.1 °F /  10.1 °C 30.10 in /  1019.2 hPa Calm   1.2 mph /  1.9 km/h 97 % 0.00 in /  0 mm
11:02 51.1 °F /  10.6 °C 50.6 °F /  10.3 °C 30.10 in /  1019.2 hPa NNW 1.3 mph /  2.1 km/h 3.5 mph /  5.6 km/h 98 % 0.00 in /  0 mm
11:07 51.1 °F /  10.6 °C 50.6 °F /  10.3 °C 30.10 in /  1019.2 hPa NNW 0.7 mph /  1.1 km/h 2.3 mph /  3.7 km/h 98 % 0.00 in /  0 mm
11:12 50.7 °F /  10.4 °C 49.9 °F /  9.9 °C 30.10 in /  1019.2 hPa ENE 1.5 mph /  2.4 km/h 3.5 mph /  5.6 km/h 97 % 0.00 in /  0 mm
11:17 50.5 °F /  10.3 °C 49.7 °F /  9.8 °C 30.09 in /  1018.8 hPa ENE 2.0 mph /  3.2 km/h 3.5 mph /  5.6 km/h 97 % 0.00 in /  0 mm
11:22 50.6 °F /  10.3 °C 49.8 °F /  9.9 °C 30.09 in /  1018.8 hPa ENE 2.0 mph /  3.2 km/h 4.0 mph /  6.4 km/h 97 % 0.00 in /  0 mm
11:27 50.7 °F /  10.4 °C 49.9 °F /  9.9 °C 30.09 in /  1018.8 hPa NE 1.5 mph /  2.4 km/h 3.5 mph /  5.6 km/h 97 % 0.00 in /  0 mm
11:32 50.8 °F /  10.4 °C 50.0 °F /  10 °C 30.09 in /  1018.8 hPa ENE 1.8 mph /  2.9 km/h 3.0 mph /  4.8 km/h 97 % 0.00 in /  0 mm
11:37 51.2 °F /  10.7 °C 50.4 °F /  10.2 °C 30.09 in /  1018.8 hPa NE 1.3 mph /  2.1 km/h 2.3 mph /  3.7 km/h 97 % 0.00 in /  0 mm
11:42 51.5 °F /  10.8 °C 50.7 °F /  10.4 °C 30.09 in /  1018.8 hPa NNE 2.0 mph /  3.2 km/h 3.5 mph /  5.6 km/h 97 % 0.00 in /  0 mm
11:47 51.9 °F /  11.1 °C 51.1 °F /  10.6 °C 30.09 in /  1018.8 hPa NNE 2.0 mph /  3.2 km/h 5.0 mph /  8 km/h 97 % 0.00 in /  0 mm
11:52 52.2 °F /  11.2 °C 51.4 °F /  10.8 °C 30.09 in /  1018.8 hPa NNE 0.7 mph /  1.1 km/h 2.3 mph /  3.7 km/h 97 % 0.00 in /  0 mm
11:57 52.1 °F /  11.2 °C 51.3 °F /  10.7 °C 30.08 in /  1018.5 hPa NNE 1.1 mph /  1.8 km/h 3.5 mph /  5.6 km/h 97 % 0.00 in /  0 mm
12:02 52.2 °F /  11.2 °C 51.1 °F /  10.6 °C 30.08 in /  1018.5 hPa NNE 1.0 mph /  1.6 km/h 3.0 mph /  4.8 km/h 96 % 0.00 in /  0 mm
12:07 52.5 °F /  11.4 °C 51.6 °F /  10.9 °C 30.09 in /  1018.8 hPa NNE 1.0 mph /  1.6 km/h 3.0 mph /  4.8 km/h 97 % 0.00 in /  0 mm
12:12 52.7 °F /  11.5 °C 51.6 °F /  10.9 °C 30.09 in /  1018.8 hPa NNE 2.0 mph /  3.2 km/h 4.0 mph /  6.4 km/h 96 % 0.00 in /  0 mm
12:17 52.8 °F /  11.6 °C 51.4 °F /  10.8 °C 30.08 in /  1018.5 hPa Calm   4.0 mph /  6.4 km/h 95 % 0.00 in /  0 mm
12:22 53.2 °F /  11.8 °C 51.9 °F /  11.1 °C 30.08 in /  1018.5 hPa Calm   3.0 mph /  4.8 km/h 95 % 0.00 in /  0 mm
12:27 53.7 °F /  12.1 °C 52.3 °F /  11.3 °C 30.08 in /  1018.5 hPa NNE 2.0 mph /  3.2 km/h 4.0 mph /  6.4 km/h 95 % 0.00 in /  0 mm
12:32 53.9 °F /  12.2 °C 51.9 °F /  11.1 °C 30.07 in /  1018.2 hPa NE 1.0 mph /  1.6 km/h 4.0 mph /  6.4 km/h 93 % 0.00 in /  0 mm
12:37 53.9 °F /  12.2 °C 51.3 °F /  10.7 °C 30.07 in /  1018.2 hPa NE 1.0 mph /  1.6 km/h 3.0 mph /  4.8 km/h 91 % 0.00 in /  0 mm
12:42 54.1 °F /  12.3 °C 51.5 °F /  10.8 °C 30.07 in /  1018.2 hPa NE 1.0 mph /  1.6 km/h 3.0 mph /  4.8 km/h 91 % 0.00 in /  0 mm
12:47 54.3 °F /  12.4 °C 51.4 °F /  10.8 °C 30.07 in /  1018.2 hPa Calm   4.0 mph /  6.4 km/h 90 % 0.00 in /  0 mm
12:52 54.3 °F /  12.4 °C 50.8 °F /  10.4 °C 30.07 in /  1018.2 hPa ENE 2.0 mph /  3.2 km/h 4.0 mph /  6.4 km/h 88 % 0.00 in /  0 mm
12:57 54.5 °F /  12.5 °C 51.0 °F /  10.6 °C 30.07 in /  1018.2 hPa NE 1.8 mph /  2.9 km/h 3.5 mph /  5.6 km/h 88 % 0.00 in /  0 mm
13:02 54.7 °F /  12.6 °C 51.8 °F /  11 °C 30.06 in /  1017.8 hPa NNE 1.0 mph /  1.6 km/h 3.5 mph /  5.6 km/h 90 % 0.00 in /  0 mm
13:07 55.0 °F /  12.8 °C 51.8 °F /  11 °C 30.06 in /  1017.8 hPa NE 2.0 mph /  3.2 km/h 4.0 mph /  6.4 km/h 89 % 0.00 in /  0 mm
13:12 55.2 °F /  12.9 °C 51.4 °F /  10.8 °C 30.06 in /  1017.8 hPa ENE 2.1 mph /  3.4 km/h 3.5 mph /  5.6 km/h 87 % 0.00 in /  0 mm
13:17 55.2 °F /  12.9 °C 51.4 °F /  10.8 °C 30.06 in /  1017.8 hPa NE 1.0 mph /  1.6 km/h 4.0 mph /  6.4 km/h 87 % 0.00 in /  0 mm
13:22 55.6 °F /  13.1 °C 51.8 °F /  11 °C 30.06 in /  1017.8 hPa Calm   3.0 mph /  4.8 km/h 87 % 0.00 in /  0 mm
13:27 56.0 °F /  13.3 °C 52.5 °F /  11.4 °C 30.06 in /  1017.8 hPa North 1.0 mph /  1.6 km/h 3.0 mph /  4.8 km/h 88 % 0.00 in /  0 mm
13:32 56.5 °F /  13.6 °C 53.0 °F /  11.7 °C 30.06 in /  1017.8 hPa WNW 1.0 mph /  1.6 km/h 3.0 mph /  4.8 km/h 88 % 0.00 in /  0 mm
13:37 56.9 °F /  13.8 °C 53.1 °F /  11.7 °C 30.06 in /  1017.8 hPa Calm   3.0 mph /  4.8 km/h 87 % 0.00 in /  0 mm
13:42 57.4 °F /  14.1 °C 53.8 °F /  12.1 °C 30.06 in /  1017.8 hPa WNW 1.0 mph /  1.6 km/h 3.0 mph /  4.8 km/h 88 % 0.00 in /  0 mm
13:47 57.9 °F /  14.4 °C 53.8 °F /  12.1 °C 30.05 in /  1017.5 hPa Calm   2.0 mph /  3.2 km/h 86 % 0.00 in /  0 mm
13:52 58.5 °F /  14.7 °C 53.7 °F /  12.1 °C 30.04 in /  1017.2 hPa North 1.0 mph /  1.6 km/h 3.0 mph /  4.8 km/h 84 % 0.00 in /  0 mm
13:57 58.9 °F /  14.9 °C 54.1 °F /  12.3 °C 30.05 in /  1017.5 hPa Calm   2.3 mph /  3.7 km/h 84 % 0.00 in /  0 mm
14:02 59.5 °F /  15.3 °C 55.0 °F /  12.8 °C 30.05 in /  1017.5 hPa Calm   3.5 mph /  5.6 km/h 85 % 0.00 in /  0 mm
14:07 60.0 °F /  15.6 °C 54.5 °F /  12.5 °C 30.05 in /  1017.5 hPa NNW 0.6 mph /  1 km/h 2.3 mph /  3.7 km/h 82 % 0.00 in /  0 mm
14:12 60.2 °F /  15.7 °C 54.7 °F /  12.6 °C 30.05 in /  1017.5 hPa NE 0.7 mph /  1.1 km/h 2.3 mph /  3.7 km/h 82 % 0.00 in /  0 mm
14:17 60.5 °F /  15.8 °C 54.6 °F /  12.6 °C 30.04 in /  1017.2 hPa NNE 1.2 mph /  1.9 km/h 3.5 mph /  5.6 km/h 81 % 0.00 in /  0 mm
14:22 61.0 °F /  16.1 °C 55.5 °F /  13.1 °C 30.04 in /  1017.2 hPa NNE 1.5 mph /  2.4 km/h 3.5 mph /  5.6 km/h 82 % 0.00 in /  0 mm
14:27 61.7 °F /  16.5 °C 56.1 °F /  13.4 °C 30.04 in /  1017.2 hPa NE 1.4 mph /  2.3 km/h 3.0 mph /  4.8 km/h 82 % 0.00 in /  0 mm
14:32 61.9 °F /  16.6 °C 55.3 °F /  12.9 °C 30.03 in /  1016.8 hPa NE 2.4 mph /  3.9 km/h 5.0 mph /  8 km/h 79 % 0.00 in /  0 mm
14:37 61.8 °F /  16.6 °C 54.5 °F /  12.5 °C 30.03 in /  1016.8 hPa NE 1.6 mph /  2.6 km/h 2.3 mph /  3.7 km/h 77 % 0.00 in /  0 mm
14:42 61.6 °F /  16.4 °C 54.3 °F /  12.4 °C 30.03 in /  1016.8 hPa ENE 2.3 mph /  3.7 km/h 3.5 mph /  5.6 km/h 77 % 0.00 in /  0 mm
14:47 61.7 °F /  16.5 °C 55.1 °F /  12.8 °C 30.03 in /  1016.8 hPa NE 0.5 mph /  0.8 km/h 2.3 mph /  3.7 km/h 79 % 0.00 in /  0 mm
14:52 61.6 °F /  16.4 °C 54.3 °F /  12.4 °C 30.03 in /  1016.8 hPa East 1.6 mph /  2.6 km/h 3.5 mph /  5.6 km/h 77 % 0.00 in /  0 mm
14:54 61.6 °F /  16.4 °C 54.7 °F /  12.6 °C 30.03 in /  1016.8 hPa ENE 2.3 mph /  3.7 km/h 3.5 mph /  5.6 km/h 78 % 0.00 in /  0 mm
14:59 61.5 °F /  16.4 °C 54.9 °F /  12.7 °C 30.02 in /  1016.5 hPa East 1.2 mph /  1.9 km/h 4.6 mph /  7.4 km/h 79 % 0.00 in /  0 mm
15:04 61.6 °F /  16.4 °C 54.3 °F /  12.4 °C 30.02 in /  1016.5 hPa ENE 3.7 mph /  6 km/h 4.6 mph /  7.4 km/h 77 % 0.00 in /  0 mm
15:09 61.5 °F /  16.4 °C 54.6 °F /  12.6 °C 30.02 in /  1016.5 hPa NE 2.4 mph /  3.9 km/h 3.5 mph /  5.6 km/h 78 % 0.00 in /  0 mm
15:15 61.4 °F /  16.3 °C 54.1 °F /  12.3 °C 30.03 in /  1016.8 hPa ENE 2.6 mph /  4.2 km/h 3.5 mph /  5.6 km/h 77 % 0.00 in /  0 mm
15:20 61.1 °F /  16.2 °C 53.8 °F /  12.1 °C 30.03 in /  1016.8 hPa ENE 2.1 mph /  3.4 km/h 3.5 mph /  5.6 km/h 77 % 0.00 in /  0 mm
15:25 60.9 °F /  16.1 °C 53.6 °F /  12 °C 30.03 in /  1016.8 hPa ENE 2.1 mph /  3.4 km/h 3.5 mph /  5.6 km/h 77 % 0.00 in /  0 mm
15:30 60.5 °F /  15.8 °C 53.3 °F /  11.8 °C 30.03 in /  1016.8 hPa NE 2.7 mph /  4.3 km/h 3.5 mph /  5.6 km/h 77 % 0.00 in /  0 mm
15:35 60.4 °F /  15.8 °C 53.9 °F /  12.2 °C 30.02 in /  1016.5 hPa NE 2.5 mph /  4 km/h 3.5 mph /  5.6 km/h 79 % 0.00 in /  0 mm
15:40 60.5 °F /  15.8 °C 54.3 °F /  12.4 °C 30.03 in /  1016.8 hPa ENE 1.2 mph /  1.9 km/h 3.5 mph /  5.6 km/h 80 % 0.00 in /  0 mm
15:45 60.8 °F /  16 °C 54.2 °F /  12.3 °C 30.03 in /  1016.8 hPa ENE 0.6 mph /  1 km/h 2.3 mph /  3.7 km/h 79 % 0.00 in /  0 mm
15:50 61.2 °F /  16.2 °C 54.6 °F /  12.6 °C 30.02 in /  1016.5 hPa East 1.6 mph /  2.6 km/h 3.5 mph /  5.6 km/h 79 % 0.00 in /  0 mm
15:55 61.5 °F /  16.4 °C 54.6 °F /  12.6 °C 30.02 in /  1016.5 hPa ENE 2.5 mph /  4 km/h 6.9 mph /  11.1 km/h 78 % 0.00 in /  0 mm
16:00 61.6 °F /  16.4 °C 54.3 °F /  12.4 °C 30.02 in /  1016.5 hPa ENE 3.4 mph /  5.5 km/h 4.6 mph /  7.4 km/h 77 % 0.00 in /  0 mm
16:05 61.9 °F /  16.6 °C 55.0 °F /  12.8 °C 30.02 in /  1016.5 hPa ENE 1.9 mph /  3.1 km/h 3.5 mph /  5.6 km/h 78 % 0.00 in /  0 mm
16:10 62.2 °F /  16.8 °C 54.9 °F /  12.7 °C 30.02 in /  1016.5 hPa ENE 2.8 mph /  4.5 km/h 4.6 mph /  7.4 km/h 77 % 0.00 in /  0 mm
16:15 62.2 °F /  16.8 °C 54.9 °F /  12.7 °C 30.02 in /  1016.5 hPa ENE 2.1 mph /  3.4 km/h 3.5 mph /  5.6 km/h 77 % 0.00 in /  0 mm
16:20 62.3 °F /  16.8 °C 55.0 °F /  12.8 °C 30.01 in /  1016.1 hPa NE 4.0 mph /  6.4 km/h 5.0 mph /  8 km/h 77 % 0.00 in /  0 mm
16:25 62.5 °F /  16.9 °C 55.2 °F /  12.9 °C 30.01 in /  1016.1 hPa East 1.8 mph /  2.9 km/h 5.0 mph /  8 km/h 77 % 0.00 in /  0 mm
16:30 62.6 °F /  17 °C 54.6 °F /  12.6 °C 30.01 in /  1016.1 hPa East 3.0 mph /  4.8 km/h 5.8 mph /  9.3 km/h 75 % 0.00 in /  0 mm
16:35 62.8 °F /  17.1 °C 54.8 °F /  12.7 °C 30.01 in /  1016.1 hPa East 3.1 mph /  5 km/h 6.9 mph /  11.1 km/h 75 % 0.00 in /  0 mm
16:40 63.1 °F /  17.3 °C 55.4 °F /  13 °C 30.01 in /  1016.1 hPa ENE 3.1 mph /  5 km/h 4.6 mph /  7.4 km/h 76 % 0.00 in /  0 mm
16:45 63.2 °F /  17.3 °C 54.4 °F /  12.4 °C 30.01 in /  1016.1 hPa East 2.4 mph /  3.9 km/h 4.6 mph /  7.4 km/h 73 % 0.00 in /  0 mm
16:50 63.1 °F /  17.3 °C 54.3 °F /  12.4 °C 30.01 in /  1016.1 hPa ENE 3.0 mph /  4.8 km/h 4.6 mph /  7.4 km/h 73 % 0.00 in /  0 mm
16:55 63.0 °F /  17.2 °C 53.8 °F /  12.1 °C 30.01 in /  1016.1 hPa ENE 3.7 mph /  6 km/h 6.9 mph /  11.1 km/h 72 % 0.00 in /  0 mm
17:00 62.8 °F /  17.1 °C 54.0 °F /  12.2 °C 30.00 in /  1015.8 hPa ENE 2.5 mph /  4 km/h 3.5 mph /  5.6 km/h 73 % 0.00 in /  0 mm
17:05 62.7 °F /  17.1 °C 54.3 °F /  12.4 °C 30.00 in /  1015.8 hPa East 4.8 mph /  7.7 km/h 8.1 mph /  13 km/h 74 % 0.00 in /  0 mm
17:10 62.6 °F /  17 °C 54.2 °F /  12.3 °C 30.00 in /  1015.8 hPa East 4.1 mph /  6.6 km/h 5.8 mph /  9.3 km/h 74 % 0.00 in /  0 mm
17:15 62.4 °F /  16.9 °C 54.0 °F /  12.2 °C 30.00 in /  1015.8 hPa East 3.3 mph /  5.3 km/h 5.0 mph /  8 km/h 74 % 0.00 in /  0 mm
17:21 62.3 °F /  16.8 °C 53.5 °F /  11.9 °C 30.00 in /  1015.8 hPa ESE 3.9 mph /  6.3 km/h 6.9 mph /  11.1 km/h 73 % 0.00 in /  0 mm
17:26 62.2 °F /  16.8 °C 53.4 °F /  11.9 °C 30.01 in /  1016.1 hPa East 4.6 mph /  7.4 km/h 6.9 mph /  11.1 km/h 73 % 0.00 in /  0 mm
17:31 62.1 °F /  16.7 °C 53.3 °F /  11.8 °C 30.00 in /  1015.8 hPa East 4.3 mph /  6.9 km/h 5.8 mph /  9.3 km/h 73 % 0.00 in /  0 mm
17:36 62.0 °F /  16.7 °C 53.2 °F /  11.8 °C 30.00 in /  1015.8 hPa East 2.2 mph /  3.5 km/h 4.6 mph /  7.4 km/h 73 % 0.00 in /  0 mm
17:41 61.9 °F /  16.6 °C 53.5 °F /  11.9 °C 30.00 in /  1015.8 hPa East 1.6 mph /  2.6 km/h 2.3 mph /  3.7 km/h 74 % 0.00 in /  0 mm
17:46 61.9 °F /  16.6 °C 53.5 °F /  11.9 °C 30.00 in /  1015.8 hPa East 2.0 mph /  3.2 km/h 3.5 mph /  5.6 km/h 74 % 0.00 in /  0 mm
17:51 62.0 °F /  16.7 °C 54.0 °F /  12.2 °C 29.99 in /  1015.5 hPa East 2.2 mph /  3.5 km/h 3.5 mph /  5.6 km/h 75 % 0.00 in /  0 mm
17:56 62.1 °F /  16.7 °C 54.1 °F /  12.3 °C 30.00 in /  1015.8 hPa East 1.4 mph /  2.3 km/h 3.0 mph /  4.8 km/h 75 % 0.00 in /  0 mm
18:01 62.3 °F /  16.8 °C 54.3 °F /  12.4 °C 30.00 in /  1015.8 hPa East 0.3 mph /  0.5 km/h 4.6 mph /  7.4 km/h 75 % 0.00 in /  0 mm
18:06 62.4 °F /  16.9 °C 54.4 °F /  12.4 °C 30.00 in /  1015.8 hPa East 1.2 mph /  1.9 km/h 3.5 mph /  5.6 km/h 75 % 0.00 in /  0 mm
18:11 62.5 °F /  16.9 °C 54.1 °F /  12.3 °C 30.00 in /  1015.8 hPa East 1.0 mph /  1.6 km/h 3.5 mph /  5.6 km/h 74 % 0.00 in /  0 mm
18:16 62.7 °F /  17.1 °C 54.3 °F /  12.4 °C 30.00 in /  1015.8 hPa ENE 1.7 mph /  2.7 km/h 3.5 mph /  5.6 km/h 74 % 0.00 in /  0 mm
18:21 62.6 °F /  17 °C 53.8 °F /  12.1 °C 30.00 in /  1015.8 hPa ENE 2.2 mph /  3.5 km/h 5.0 mph /  8 km/h 73 % 0.00 in /  0 mm
18:26 62.3 °F /  16.8 °C 53.5 °F /  11.9 °C 30.00 in /  1015.8 hPa NE 1.6 mph /  2.6 km/h 3.5 mph /  5.6 km/h 73 % 0.00 in /  0 mm
18:31 62.2 °F /  16.8 °C 53.8 °F /  12.1 °C 30.01 in /  1016.1 hPa NE 0.8 mph /  1.3 km/h 2.3 mph /  3.7 km/h 74 % 0.00 in /  0 mm
18:36 61.8 °F /  16.6 °C 53.1 °F /  11.7 °C 30.01 in /  1016.1 hPa ENE 1.6 mph /  2.6 km/h 3.0 mph /  4.8 km/h 73 % 0.00 in /  0 mm
18:41 61.3 °F /  16.3 °C 52.6 °F /  11.4 °C 30.00 in /  1015.8 hPa ENE 1.0 mph /  1.6 km/h 2.3 mph /  3.7 km/h 73 % 0.00 in /  0 mm
18:46 60.9 °F /  16.1 °C 52.9 °F /  11.6 °C 30.00 in /  1015.8 hPa ENE 0.4 mph /  0.6 km/h 1.2 mph /  1.9 km/h 75 % 0.00 in /  0 mm
18:51 60.5 °F /  15.8 °C 52.9 °F /  11.6 °C 30.00 in /  1015.8 hPa Calm     76 % 0.00 in /  0 mm
18:57 60.2 °F /  15.7 °C 53.0 °F /  11.7 °C 30.00 in /  1015.8 hPa SSE 1.9 mph /  3.1 km/h 4.6 mph /  7.4 km/h 77 % 0.00 in /  0 mm
19:02 60.0 °F /  15.6 °C 53.5 °F /  11.9 °C 30.01 in /  1016.1 hPa SSE 2.0 mph /  3.2 km/h 4.0 mph /  6.4 km/h 79 % 0.00 in /  0 mm
19:07 60.0 °F /  15.6 °C 53.8 °F /  12.1 °C 30.00 in /  1015.8 hPa SE 1.5 mph /  2.4 km/h 4.6 mph /  7.4 km/h 80 % 0.00 in /  0 mm
19:12 59.9 °F /  15.5 °C 53.4 °F /  11.9 °C 30.00 in /  1015.8 hPa SSE 3.9 mph /  6.3 km/h 8.1 mph /  13 km/h 79 % 0.00 in /  0 mm
19:17 59.8 °F /  15.4 °C 53.6 °F /  12 °C 30.00 in /  1015.8 hPa SSE 6.3 mph /  10.1 km/h 8.1 mph /  13 km/h 80 % 0.00 in /  0 mm
19:22 59.5 °F /  15.3 °C 53.3 °F /  11.8 °C 30.01 in /  1016.1 hPa SSE 1.8 mph /  2.9 km/h 4.0 mph /  6.4 km/h 80 % 0.00 in /  0 mm
19:27 59.3 °F /  15.2 °C 53.1 °F /  11.7 °C 30.01 in /  1016.1 hPa SSE 4.9 mph /  7.9 km/h 10.0 mph /  16.1 km/h 80 % 0.00 in /  0 mm
19:32 59.0 °F /  15 °C 52.8 °F /  11.6 °C 30.01 in /  1016.1 hPa SSE 1.6 mph /  2.6 km/h 3.5 mph /  5.6 km/h 80 % 0.00 in /  0 mm
19:37 58.7 °F /  14.8 °C 52.5 °F /  11.4 °C 30.01 in /  1016.1 hPa SSW 2.5 mph /  4 km/h 5.0 mph /  8 km/h 80 % 0.00 in /  0 mm
19:42 58.5 °F /  14.7 °C 52.7 °F /  11.5 °C 30.01 in /  1016.1 hPa SE 0.9 mph /  1.4 km/h 3.5 mph /  5.6 km/h 81 % 0.00 in /  0 mm
19:47 58.3 °F /  14.6 °C 52.5 °F /  11.4 °C 30.02 in /  1016.5 hPa SSE 0.6 mph /  1 km/h 2.3 mph /  3.7 km/h 81 % 0.00 in /  0 mm
19:52 58.1 °F /  14.5 °C 52.3 °F /  11.3 °C 30.02 in /  1016.5 hPa SSE 0.8 mph /  1.3 km/h 2.3 mph /  3.7 km/h 81 % 0.00 in /  0 mm
19:57 57.9 °F /  14.4 °C 52.4 °F /  11.3 °C 30.01 in /  1016.1 hPa SSE 0.9 mph /  1.4 km/h 2.3 mph /  3.7 km/h 82 % 0.00 in /  0 mm
20:02 57.7 °F /  14.3 °C 52.2 °F /  11.2 °C 30.02 in /  1016.5 hPa SSW 4.2 mph /  6.8 km/h 7.0 mph /  11.3 km/h 82 % 0.00 in /  0 mm
20:07 57.3 °F /  14.1 °C 51.9 °F /  11.1 °C 30.02 in /  1016.5 hPa South 3.3 mph /  5.3 km/h 6.9 mph /  11.1 km/h 82 % 0.00 in /  0 mm
20:12 56.9 °F /  13.8 °C 51.8 °F /  11 °C 30.01 in /  1016.1 hPa SE 2.4 mph /  3.9 km/h 5.0 mph /  8 km/h 83 % 0.00 in /  0 mm
20:17 56.5 °F /  13.6 °C 51.4 °F /  10.8 °C 30.01 in /  1016.1 hPa SSE 3.5 mph /  5.6 km/h 5.8 mph /  9.3 km/h 83 % 0.00 in /  0 mm
20:22 56.3 °F /  13.5 °C 51.5 °F /  10.8 °C 30.01 in /  1016.1 hPa SSE 1.9 mph /  3.1 km/h 8.0 mph /  12.9 km/h 84 % 0.00 in /  0 mm
20:27 56.0 °F /  13.3 °C 51.2 °F /  10.7 °C 30.01 in /  1016.1 hPa SE 2.7 mph /  4.3 km/h 4.0 mph /  6.4 km/h 84 % 0.00 in /  0 mm
20:32 55.8 °F /  13.2 °C 51.0 °F /  10.6 °C 30.02 in /  1016.5 hPa ESE 0.3 mph /  0.5 km/h 1.2 mph /  1.9 km/h 84 % 0.00 in /  0 mm
20:37 55.7 °F /  13.2 °C 50.9 °F /  10.5 °C 30.02 in /  1016.5 hPa SE 1.7 mph /  2.7 km/h 3.5 mph /  5.6 km/h 84 % 0.00 in /  0 mm
20:42 55.4 °F /  13 °C 50.6 °F /  10.3 °C 30.02 in /  1016.5 hPa SE 2.4 mph /  3.9 km/h 8.1 mph /  13 km/h 84 % 0.00 in /  0 mm
20:47 55.1 °F /  12.8 °C 50.4 °F /  10.2 °C 30.02 in /  1016.5 hPa SE 1.7 mph /  2.7 km/h 6.9 mph /  11.1 km/h 84 % 0.00 in /  0 mm
20:52 55.0 °F /  12.8 °C 50.6 °F /  10.3 °C 30.03 in /  1016.8 hPa SE 2.7 mph /  4.3 km/h 5.0 mph /  8 km/h 85 % 0.00 in /  0 mm
20:57 54.8 °F /  12.7 °C 50.4 °F /  10.2 °C 30.03 in /  1016.8 hPa SE 1.2 mph /  1.9 km/h 4.6 mph /  7.4 km/h 85 % 0.00 in /  0 mm
21:02 54.6 °F /  12.6 °C 50.2 °F /  10.1 °C 30.03 in /  1016.8 hPa SE 2.3 mph /  3.7 km/h 4.0 mph /  6.4 km/h 85 % 0.00 in /  0 mm
21:07 54.5 °F /  12.5 °C 50.1 °F /  10.1 °C 30.03 in /  1016.8 hPa Calm   2.0 mph /  3.2 km/h 85 % 0.00 in /  0 mm
21:12 54.3 °F /  12.4 °C 50.2 °F /  10.1 °C 30.03 in /  1016.8 hPa SSE 1.0 mph /  1.6 km/h 3.5 mph /  5.6 km/h 86 % 0.00 in /  0 mm
21:17 54.2 °F /  12.3 °C 50.1 °F /  10.1 °C 30.04 in /  1017.2 hPa SE 1.9 mph /  3.1 km/h 4.6 mph /  7.4 km/h 86 % 0.00 in /  0 mm
21:22 54.1 °F /  12.3 °C 50.0 °F /  10 °C 30.04 in /  1017.2 hPa ESE 2.1 mph /  3.4 km/h 3.5 mph /  5.6 km/h 86 % 0.00 in /  0 mm
21:27 53.9 °F /  12.2 °C 50.1 °F /  10.1 °C 30.04 in /  1017.2 hPa SE 0.4 mph /  0.6 km/h 3.5 mph /  5.6 km/h 87 % 0.00 in /  0 mm
21:32 53.9 °F /  12.2 °C 50.1 °F /  10.1 °C 30.04 in /  1017.2 hPa SE 0.9 mph /  1.4 km/h 2.3 mph /  3.7 km/h 87 % 0.00 in /  0 mm
21:37 53.8 °F /  12.1 °C 50.0 °F /  10 °C 30.04 in /  1017.2 hPa SE 0.3 mph /  0.5 km/h 3.5 mph /  5.6 km/h 87 % 0.00 in /  0 mm
21:42 53.7 °F /  12.1 °C 49.9 °F /  9.9 °C 30.04 in /  1017.2 hPa SE 1.8 mph /  2.9 km/h 3.5 mph /  5.6 km/h 87 % 0.00 in /  0 mm
21:47 53.7 °F /  12.1 °C 49.9 °F /  9.9 °C 30.05 in /  1017.5 hPa SE 1.0 mph /  1.6 km/h 3.5 mph /  5.6 km/h 87 % 0.00 in /  0 mm
21:52 53.7 °F /  12.1 °C 49.9 °F /  9.9 °C 30.04 in /  1017.2 hPa SE 1.5 mph /  2.4 km/h 5.8 mph /  9.3 km/h 87 % 0.00 in /  0 mm
21:57 53.7 °F /  12.1 °C 50.2 °F /  10.1 °C 30.04 in /  1017.2 hPa SSE 2.9 mph /  4.7 km/h 3.5 mph /  5.6 km/h 88 % 0.00 in /  0 mm
22:02 53.7 °F /  12.1 °C 49.9 °F /  9.9 °C 30.04 in /  1017.2 hPa SSE 3.5 mph /  5.6 km/h 8.1 mph /  13 km/h 87 % 0.00 in /  0 mm
22:07 53.7 °F /  12.1 °C 49.9 °F /  9.9 °C 30.05 in /  1017.5 hPa SSE 2.4 mph /  3.9 km/h 6.9 mph /  11.1 km/h 87 % 0.00 in /  0 mm
22:12 53.8 °F /  12.1 °C 50.0 °F /  10 °C 30.04 in /  1017.2 hPa SSE 3.9 mph /  6.3 km/h 4.6 mph /  7.4 km/h 87 % 0.00 in /  0 mm
22:17 53.9 °F /  12.2 °C 50.1 °F /  10.1 °C 30.04 in /  1017.2 hPa ESE 4.0 mph /  6.4 km/h 8.1 mph /  13 km/h 87 % 0.00 in /  0 mm
22:22 53.8 °F /  12.1 °C 50.0 °F /  10 °C 30.04 in /  1017.2 hPa SE 3.0 mph /  4.8 km/h 7.0 mph /  11.3 km/h 87 % 0.00 in /  0 mm
22:27 53.8 °F /  12.1 °C 50.0 °F /  10 °C 30.03 in /  1016.8 hPa SE 3.0 mph /  4.8 km/h 9.0 mph /  14.5 km/h 87 % 0.00 in /  0 mm
22:32 53.7 °F /  12.1 °C 49.9 °F /  9.9 °C 30.03 in /  1016.8 hPa SE 5.0 mph /  8 km/h 12.0 mph /  19.3 km/h 87 % 0.00 in /  0 mm
22:33 53.7 °F /  12.1 °C 49.9 °F /  9.9 °C 30.03 in /  1016.8 hPa SE 1.6 mph /  2.6 km/h 5.8 mph /  9.3 km/h 87 % 0.00 in /  0 mm
22:38 53.6 °F /  12 °C 50.1 °F /  10.1 °C 30.03 in /  1016.8 hPa ESE 3.3 mph /  5.3 km/h 11.5 mph /  18.5 km/h 88 % 0.00 in /  0 mm
22:43 53.5 °F /  11.9 °C 50.0 °F /  10 °C 30.03 in /  1016.8 hPa ESE 2.8 mph /  4.5 km/h 5.0 mph /  8 km/h 88 % 0.00 in /  0 mm
22:48 53.3 °F /  11.8 °C 49.8 °F /  9.9 °C 30.03 in /  1016.8 hPa SSE 3.8 mph /  6.1 km/h 5.0 mph /  8 km/h 88 % 0.00 in /  0 mm
22:53 53.1 °F /  11.7 °C 49.6 °F /  9.8 °C 30.03 in /  1016.8 hPa SE 5.5 mph /  8.9 km/h 8.1 mph /  13 km/h 88 % 0.00 in /  0 mm
22:58 53.0 °F /  11.7 °C 49.5 °F /  9.7 °C 30.03 in /  1016.8 hPa SSE 3.2 mph /  5.1 km/h 8.1 mph /  13 km/h 88 % 0.00 in /  0 mm
23:03 52.9 °F /  11.6 °C 49.7 °F /  9.8 °C 30.03 in /  1016.8 hPa ESE 3.8 mph /  6.1 km/h 6.0 mph /  9.7 km/h 89 % 0.00 in /  0 mm
23:08 52.7 °F /  11.5 °C 49.5 °F /  9.7 °C 30.03 in /  1016.8 hPa SE 4.5 mph /  7.2 km/h 6.9 mph /  11.1 km/h 89 % 0.00 in /  0 mm
23:13 52.6 °F /  11.4 °C 49.4 °F /  9.7 °C 30.03 in /  1016.8 hPa SE 4.0 mph /  6.4 km/h 6.9 mph /  11.1 km/h 89 % 0.00 in /  0 mm
23:18 52.6 °F /  11.4 °C 49.4 °F /  9.7 °C 30.03 in /  1016.8 hPa ESE 0.7 mph /  1.1 km/h 5.8 mph /  9.3 km/h 89 % 0.00 in /  0 mm
23:23 52.5 °F /  11.4 °C 49.4 °F /  9.7 °C 30.02 in /  1016.5 hPa ESE 5.8 mph /  9.3 km/h 7.0 mph /  11.3 km/h 89 % 0.00 in /  0 mm
23:28 52.5 °F /  11.4 °C 49.4 °F /  9.7 °C 30.02 in /  1016.5 hPa SSE 2.5 mph /  4 km/h 4.0 mph /  6.4 km/h 89 % 0.00 in /  0 mm
23:33 52.4 °F /  11.3 °C 49.6 °F /  9.8 °C 30.02 in /  1016.5 hPa SE 2.8 mph /  4.5 km/h 5.0 mph /  8 km/h 90 % 0.00 in /  0 mm
23:38 52.3 °F /  11.3 °C 49.5 °F /  9.7 °C 30.02 in /  1016.5 hPa SE 4.5 mph /  7.2 km/h 7.0 mph /  11.3 km/h 90 % 0.00 in /  0 mm
23:43 52.3 °F /  11.3 °C 49.5 °F /  9.7 °C 30.03 in /  1016.8 hPa SSE 6.2 mph /  10 km/h 9.2 mph /  14.8 km/h 90 % 0.00 in /  0 mm
23:48 52.2 °F /  11.2 °C 49.1 °F /  9.5 °C 30.03 in /  1016.8 hPa SE 1.1 mph /  1.8 km/h 4.6 mph /  7.4 km/h 89 % 0.00 in /  0 mm
23:53 52.1 °F /  11.2 °C 49.0 °F /  9.4 °C 30.03 in /  1016.8 hPa SSE 5.4 mph /  8.7 km/h 9.2 mph /  14.8 km/h 89 % 0.00 in /  0 mm
23:58 52.0 °F /  11.1 °C 48.9 °F /  9.4 °C 30.03 in /  1016.8 hPa SE 3.2 mph /  5.1 km/h 9.2 mph /  14.8 km/h 89 % 0.00 in /  0 mm
Crab Meadow Weather
Compliments of Weather Underground - 3 mb

Script developed by  Jim McMurry - jmcmurry@mwt.net Adapted for the template by  Wim van der Kuil - Leuven-Template.eu

Astronomy: The light of the Sun takes 8 minutes to reach Earth.